WILDBLUE-1

Last updated on Sun Jun 21 2026 00:03:04 GMT+0000 (Coordinated Universal Time)

1 29643U 06054A 26171.36997036 -.00000054 00000+0 00000+0 0 9997 2 29643 2.8124 80.4454 0001466 0.2217 209.8913 1.00271685 53827
UTC large
Height (km)
Speed (km/s)
/
Latitude / Longitude
Inclination (degrees)
Orbital Period (minutes)
Azimuth
Elevation
Range (km)
Doppler Factor

Next 0 passes for location: London (51.5072 / 0.1276)

No passes found over London.
WILDBLUE-1